STARLINK-32785 (62531 NORAD) Tracking and Keplerian Element Data

This shows tracking and keplerian element data for the satellite.

Feedback or suggestion? Click here.




ElementValue
Catalog62531
NameSTARLINK-32785
Epoch Orbit542
Epoch Day34.83335648
Epoch Year2025
RAAN317.7801
Inclination42.9991
Eccentricity0.0001179
Argument of Perigee268.6781
Mean Anonmoly201.4272
Mean Motion15.43585846
Decay Rate-0.01520388
L11 62531U 25004W 25034.83335648 -.01520388 00000+0 -36603-1 0 9999
L22 62531 42.9991 317.7801 0001179 268.6781 201.4272 15.43585846 5424



Live tracking and technical data element details for STARLINK-32785 (NORAD 62531). STARLINK-32785 can be tracked NOW for your location showing map with azimuth and elevation plus other details from your city location.







IsCatalogInMostPopularTable: catalog: 62531, numindb: 12
Update: records affected: 1



GetName: 62531 STARLINK-32785

Hit Count: updated at: Mon, 19 May 2025 02:24:38 GMT